GW5996 Weather Reports


time (UTC)temp
F
wind
direction
speed
knots
gust
knots
rain 1hr
in
rain 24hr
in
rain mn
in
humidity
%
barometer
mb
20260508132440 45 265 1.7 6.1 0.00 0.00 0.00 99 1002.5
20260508131936 45 257 6.1 8.7 0.00 0.00 0.00 99 1002.2
20260508131431 44 248 5.2 6.1 0.00 0.00 0.00 99 1002.2
20260508130928 45 229 4.3 7.0 0.00 0.00 0.00 99 1002.2
20260508130426 44 222 5.2 7.8 0.00 0.00 0.00 99 1002.3
20260508125921 44 225 4.3 10.4 0.00 0.00 0.00 99 1002.3
20260508125417 44 250 6.1 7.8 0.00 0.00 0.00 99 1002.2
20260508124915 45 233 6.1 8.7 0.00 0.00 0.00 99 1002.3
20260508124413 45 203 5.2 6.1 0.00 0.00 0.00 99 1002.1
20260508123911 46 242 4.3 5.2 0.00 0.00 0.00 99 1002.1
20260508123409 45 191 3.5 6.1 0.00 0.00 0.00 99 1002.1
20260508122905 46 194 4.3 6.1 0.00 0.00 0.00 99 1002.2
20260508122402 45 210 2.6 6.1 0.00 0.00 0.00 99 1002.1
20260508121859 45 233 3.5 5.2 0.00 0.00 0.00 99 1002.2
20260508121357 45 229 5.2 8.7 0.00 0.00 0.00 99 1002.2
20260508120855 45 222 2.6 4.3 0.00 0.00 0.00 99 1002.1
20260508120352 45 226 2.6 4.3 0.00 0.00 0.00 99 1002.0
20260508115849 45 229 4.3 4.3 0.00 0.00 0.00 99 1002.1
20260508115347 45 204 3.5 5.2 0.00 0.00 0.00 99 1002.2
20260508114843 45 162 2.6 3.5 0.00 0.00 0.00 99 1001.9
20260508114340 45 223 3.5 3.5 0.00 0.00 0.00 99 1002.0
20260508113837 45 217 1.7 3.5 0.00 0.00 0.00 99 1002.0
20260508113335 45 235 2.6 4.3 0.00 0.00 0.00 99 1002.0
20260508112831 45 244 5.2 5.2 0.00 0.00 0.00 99 1002.0
20260508112329 45 89 0.0 1.7 0.00 0.00 0.00 99 1001.9
20260508111825 45 217 2.6 4.3 0.00 0.00 0.00 99 1002.0
20260508111322 45 214 0.0 1.7 0.00 0.00 0.00 99 1001.9
20260508110820 45 148 3.5 4.3 0.00 0.00 0.00 99 1002.0
20260508110317 45 146 2.6 3.5 0.00 0.00 0.00 99 1001.8
20260508105817 45 155 0.9 1.7 0.00 0.00 0.00 99 1001.9
20260508105314 45 132 2.6 4.3 0.00 0.00 0.00 99 1001.9
20260508104811 45 134 2.6 2.6 0.00 0.00 0.00 99 1002.1
20260508104307 45 140 0.9 3.5 0.00 0.00 0.00 99 1001.7
20260508103805 45 171 3.5 4.3 0.00 0.00 0.00 99 1002.0
20260508103301 45 178 4.3 6.1 0.00 0.00 0.00 99 1002.1
20260508102759 45 187 3.5 4.3 0.00 0.00 0.00 99 1001.9
20260508102257 44 154 4.3 5.2 0.00 0.00 0.00 99 1002.0
20260508101754 44 160 3.5 6.1 0.00 0.00 0.00 99 1002.0
20260508101251 44 164 6.1 7.0 0.00 0.00 0.00 99 1002.1
20260508100749 44 176 4.3 7.0 0.00 0.00 0.00 99 1002.3
20260508100247 44 187 4.3 6.1 0.00 0.00 0.00 99 1002.1
20260508095742 44 188 2.6 4.3 0.00 0.00 0.00 99 1001.9
20260508095240 44 197 3.5 4.3 0.00 0.00 0.00 99 1002.0
20260508094737 43 193 2.6 3.5 0.00 0.00 0.00 99 1001.7
20260508094234 43 169 2.6 3.5 0.00 0.00 0.00 99 1001.7
20260508093731 43 137 3.5 4.3 0.00 0.00 0.00 99 1001.8
20260508093229 43 141 1.7 2.6 0.00 0.00 0.00 99 1001.4
20260508092726 43 116 2.6 2.6 0.00 0.00 0.00 99 1001.6
20260508092224 43 126 0.9 2.6 0.00 0.00 0.00 99 1001.6
20260508091721 43 138 2.6 3.5 0.00 0.00 0.00 99 1001.3
20260508091218 43 132 2.6 3.5 0.00 0.00 0.00 99 1001.6
20260508090716 43 115 2.6 3.5 0.00 0.00 0.00 99 1001.4
20260508090213 43 120 1.7 3.5 0.00 0.00 0.00 99 1001.4
20260508085709 43 110 3.5 3.5 0.00 0.00 0.00 99 1001.5
20260508085207 43 121 2.6 3.5 0.00 0.00 0.00 99 1001.3
20260508084702 42 132 3.5 4.3 0.00 0.00 0.00 99 1001.6
20260508084200 42 155 3.5 5.2 0.00 0.00 0.00 99 1001.7
20260508083657 42 128 4.3 5.2 0.00 0.00 0.00 99 1001.3
20260508083155 42 134 3.5 4.3 0.00 0.00 0.00 99 1001.6
20260508082649 42 130 2.6 2.6 0.00 0.00 0.00 99 1001.4
20260508082147 43 119 2.6 2.6 0.00 0.00 0.00 99 1001.6
20260508081645 42 119 0.9 1.7 0.00 0.00 0.00 99 1001.7
20260508081141 42 92 2.6 4.3 0.00 0.00 0.00 99 1001.7
20260508080639 42 28 0.9 2.6 0.00 0.00 0.00 99 1001.7
20260508080137 43 24 1.7 2.6 0.00 0.00 0.00 99 1001.7
20260508075633 43 221 1.7 1.7 0.00 0.00 0.00 99 1001.7
20260508075130 42 116 0.9 0.9 0.00 0.00 0.00 99 1001.9
20260508074628 42 156 1.7 2.6 0.00 0.00 0.00 99 1001.9
20260508074124 41 133 2.6 2.6 0.00 0.00 0.00 99 1002.2
20260508073621 42 170 1.7 2.6 0.00 0.00 0.00 99 1001.8
20260508073119 42 193 2.6 2.6 0.00 0.00 0.00 99 1001.9
20260508072614 42 221 2.6 3.5 0.00 0.00 0.00 99 1001.6
20260508072112 42 219 2.6 2.6 0.00 0.00 0.00 99 1001.4
20260508071610 43 255 0.0 1.7 0.00 0.00 0.00 99 1001.3
20260508071108 43 284 1.7 2.6 0.00 0.00 0.00 99 1001.5
20260508070605 44 127 3.5 4.3 0.00 0.00 0.00 99 1001.3
20260508065600 43 121 4.3 4.3 0.00 0.00 0.00 99 1001.0
20260508065058 44 121 4.3 4.3 0.00 0.00 0.00 99 1000.9
20260508064555 44 118 4.3 5.2 0.00 0.00 0.00 99 1001.0
20260508064053 44 111 5.2 5.2 0.00 0.00 0.00 99 1001.4
20260508063550 44 128 3.5 3.5 0.00 0.00 0.00 99 1001.5
20260508063048 44 123 2.6 3.5 0.00 0.00 0.00 99 1001.6
20260508062545 45 148 1.7 2.6 0.00 0.00 0.00 99 1001.9
20260508062042 44 137 0.9 1.7 0.00 0.00 0.00 99 1001.7
20260508061540 44 130 2.6 2.6 0.00 0.00 0.00 99 1001.7
20260508061036 44 130 2.6 3.5 0.00 0.00 0.00 99 1001.8
20260508060533 45 131 2.6 3.5 0.00 0.00 0.00 99 1001.6
20260508060031 45 127 3.5 3.5 0.00 0.00 0.00 99 1001.7
20260508055526 45 131 2.6 2.6 0.00 0.00 0.00 99 1001.5
20260508055024 45 161 1.7 1.7 0.00 0.00 0.00 99 1001.6
20260508054520 45 174 0.9 0.9 0.00 0.00 0.00 99 1001.6
20260508054017 45 221 0.0 2.6 0.00 0.00 0.00 99 1001.5
20260508053514 45 213 1.7 2.6 0.00 0.00 0.00 99 1002.1
20260508053013 45 135 0.0 0.9 0.00 0.00 0.00 99 1001.7
20260508052509 45 160 1.7 2.6 0.00 0.00 0.00 99 1001.8
20260508052005 45 145 1.7 2.6 0.00 0.00 0.00 99 1002.0
20260508051502 46 165 0.9 0.9 0.00 0.00 0.00 99 1002.0
20260508050957 46 214 1.7 2.6 0.00 0.00 0.00 99 1001.9
20260508050454 46 238 1.7 2.6 0.00 0.00 0.00 99 1001.9
20260508045950 46 227 2.6 2.6 0.00 0.00 0.00 99 1001.9
20260508045448 46 203 1.7 1.7 0.00 0.00 0.00 99 1002.0
20260508044945 46 199 0.9 1.7 0.00 0.00 0.00 99 1002.1
20260508044442 46 186 0.9 1.7 0.00 0.00 0.00 99 1002.1
20260508043937 46 175 0.0 1.7 0.00 0.00 0.00 99 1002.1
20260508043435 46 202 1.7 2.6 0.00 0.00 0.00 99 1002.0
20260508042931 46 214 1.7 1.7 0.00 0.00 0.00 99 1001.9
20260508042429 47 200 0.0 1.7 0.00 0.00 0.00 99 1001.7
20260508041926 47 220 0.9 2.6 0.00 0.00 0.00 99 1001.6
20260508041422 47 214 1.7 2.6 0.00 0.00 0.00 99 1001.6
20260508040919 47 235 1.7 2.6 0.00 0.00 0.00 99 1001.7
20260508040416 47 230 1.7 2.6 0.00 0.00 0.00 99 1001.8
20260508035914 47 224 0.9 2.6 0.00 0.00 0.00 99 1001.9
20260508035411 47 223 2.6 2.6 0.00 0.00 0.00 99 1001.7
20260508034907 47 216 2.6 2.6 0.00 0.00 0.00 99 1001.9
20260508034405 47 215 2.6 2.6 0.00 0.00 0.00 99 1001.9
20260508033901 47 183 3.5 3.5 0.00 0.00 0.00 99 1001.9
20260508033400 47 198 2.6 2.6 0.00 0.00 0.00 99 1002.2
20260508032857 47 194 1.7 3.5 0.00 0.00 0.00 99 1002.1
20260508032354 47 183 1.7 2.6 0.00 0.00 0.00 99 1002.2
20260508031851 47 185 1.7 2.6 0.00 0.00 0.00 99 1002.1
20260508031348 47 196 3.5 3.5 0.00 0.00 0.00 99 1002.2
20260508030844 47 179 2.6 2.6 0.00 0.00 0.00 99 1002.2
20260508030341 47 190 2.6 3.5 0.00 0.00 0.00 99 1002.1
20260508025838 47 169 3.5 4.3 0.00 0.32 0.32 99 1001.9
20260508025335 48 183 2.6 3.5 0.00 0.32 0.32 99 1002.2
20260508024832 48 210 2.6 3.5 0.00 0.32 0.32 99 1002.4
20260508024328 48 232 1.7 2.6 0.00 0.32 0.32 99 1002.1
20260508023825 48 223 1.7 2.6 0.00 0.32 0.32 99 1002.3
20260508023322 48 227 2.6 2.6 0.00 0.32 0.32 99 1002.0
20260508022819 48 206 1.7 1.7 0.00 0.32 0.32 99 1002.1
20260508022314 48 156 1.7 1.7 0.00 0.32 0.32 99 1002.2
20260508021812 48 180 2.6 2.6 0.00 0.32 0.32 99 1002.4
20260508021307 48 154 1.7 2.6 0.00 0.32 0.32 99 1002.3
20260508020804 48 147 1.7 2.6 0.00 0.32 0.32 99 1001.9
20260508020302 48 149 1.7 2.6 0.00 0.32 0.32 99 1002.1
20260508015758 48 155 2.6 3.5 0.00 0.32 0.32 99 1002.1
20260508015256 49 162 2.6 2.6 0.00 0.32 0.32 99 1002.1
20260508014752 49 136 1.7 2.6 0.00 0.32 0.32 99 1002.0
20260508014249 49 118 0.9 1.7 0.00 0.32 0.32 99 1002.2
20260508013745 49 150 2.6 2.6 0.00 0.32 0.32 99 1002.2
20260508013242 49 152 0.9 1.7 0.00 0.32 0.32 99 1002.3
20260508012739 49 137 1.7 2.6 0.00 0.32 0.32 99 1002.2
20260508012236 49 149 1.7 1.7 0.00 0.32 0.32 99 1001.9
20260508011734 49 142 2.6 3.5 0.00 0.32 0.32 99 1001.8
20260508011231 49 107 3.5 4.3 0.00 0.32 0.32 99 1001.7
20260508010728 49 108 2.6 3.5 0.00 0.32 0.32 99 1001.8
20260508010226 49 83 2.6 3.5 0.00 0.32 0.32 99 1001.8
20260508005723 49 77 2.6 2.6 0.00 0.32 0.32 99 1001.9
20260508005220 49 71 1.7 2.6 0.00 0.32 0.32 99 1001.9
20260508004715 49 25 2.6 3.5 0.00 0.32 0.32 99 1001.7
20260508004212 49 11 3.5 4.3 0.00 0.32 0.32 99 1001.7
20260508003708 49 14 3.5 3.5 0.00 0.32 0.32 99 1001.9
20260508003206 49 341 1.7 2.6 0.00 0.32 0.32 99 1002.0
20260508002702 49 330 0.9 2.6 0.00 0.32 0.32 99 1002.1
20260508002200 49 319 3.5 3.5 0.00 0.32 0.32 99 1002.2
20260508001655 49 276 2.6 3.5 0.00 0.32 0.32 99 1002.1
20260508001151 49 302 1.7 2.6 0.00 0.32 0.32 99 1002.0
20260508000647 49 255 1.7 1.7 0.00 0.32 0.32 99 1001.6
20260508000145 49 246 1.7 2.6 0.00 0.32 0.32 99 1001.5
20260507235641 49 235 0.9 1.7 0.00 0.32 0.32 99 1001.7
20260507235139 49 247 0.9 2.6 0.00 0.32 0.32 99 1001.3
20260507234635 49 238 2.6 2.6 0.00 0.32 0.32 99 1001.5
20260507234132 49 232 2.6 3.5 0.00 0.32 0.32 99 1001.5
20260507233629 49 226 2.6 3.5 0.00 0.32 0.32 99 1001.7
20260507233127 49 234 2.6 2.6 0.00 0.32 0.32 99 1001.5
20260507232625 49 229 0.0 1.7 0.00 0.32 0.32 99 1001.6
20260507232121 50 253 0.9 2.6 0.00 0.32 0.32 99 1001.5
20260507231617 50 210 1.7 2.6 0.00 0.32 0.32 99 1001.6
20260507231114 50 224 0.0 2.6 0.00 0.32 0.32 99 1001.5
20260507230611 50 199 1.7 2.6 0.00 0.32 0.32 99 1001.6
20260507230108 50 206 2.6 2.6 0.00 0.32 0.32 99 1001.6
20260507225602 51 222 0.0 2.6 0.00 0.32 0.32 99 1001.7
20260507225059 51 225 1.7 2.6 0.00 0.32 0.32 99 1001.4
20260507224555 51 214 0.9 2.6 0.00 0.32 0.32 99 1001.4
20260507224052 51 225 0.9 1.7 0.00 0.32 0.32 99 1001.3
20260507223548 51 235 0.0 1.7 0.00 0.32 0.32 99 1001.3
20260507223045 50 242 1.7 3.5 0.00 0.32 0.32 99 1001.4
20260507222542 50 231 2.6 3.5 0.00 0.32 0.32 99 1001.3
20260507222038 50 184 1.7 2.6 0.00 0.32 0.32 99 1001.4
20260507221535 50 221 1.7 3.5 0.00 0.32 0.32 99 1001.6
20260507221032 49 223 2.6 2.6 0.00 0.32 0.32 99 1001.3
20260507220529 50 218 2.6 2.6 0.00 0.32 0.32 99 1001.3
20260507220026 50 236 2.6 2.6 0.00 0.32 0.32 99 1001.1
20260507215522 50 242 1.7 2.6 0.00 0.32 0.32 99 1001.1
20260507215020 49 240 2.6 2.6 0.00 0.32 0.32 99 1001.2
20260507214517 49 215 1.7 2.6 0.00 0.32 0.32 99 1001.2
20260507214013 49 207 2.6 3.5 0.00 0.32 0.32 99 1001.3
20260507213510 49 214 2.6 4.3 0.00 0.32 0.32 99 1001.3
20260507213007 49 211 2.6 4.3 0.00 0.32 0.32 99 1001.0
20260507212502 48 225 3.5 5.2 0.00 0.32 0.32 99 1001.4
20260507211959 48 223 4.3 6.1 0.00 0.32 0.32 99 1001.4
20260507211456 48 213 4.3 5.2 0.00 0.32 0.32 99 1001.3
20260507210952 48 225 5.2 6.1 0.00 0.32 0.32 99 1001.6
20260507210449 48 243 2.6 6.1 0.00 0.32 0.32 99 1001.6
20260507205946 48 227 5.2 6.1 0.00 0.32 0.32 99 1001.4
20260507205443 49 232 4.3 4.3 0.00 0.32 0.32 99 1001.2
20260507204939 49 231 4.3 6.1 0.00 0.32 0.32 99 1001.3
20260507204436 49 229 4.3 6.1 0.00 0.32 0.32 99 1001.0
20260507203934 49 221 3.5 5.2 0.00 0.32 0.32 99 1001.2
20260507203431 49 235 4.3 7.0 0.00 0.32 0.32 99 1001.2
20260507202928 49 236 5.2 5.2 0.00 0.32 0.32 99 1001.2
20260507202424 49 245 4.3 7.8 0.00 0.32 0.32 99 1001.1
20260507201920 49 243 5.2 7.8 0.00 0.32 0.32 99 1000.9
20260507201415 49 239 7.0 8.7 0.00 0.32 0.32 99 1000.8
20260507200912 49 245 7.8 8.7 0.00 0.32 0.32 99 1001.1
20260507200408 49 242 5.2 8.7 0.00 0.32 0.32 99 1001.1
20260507195904 50 237 7.8 8.7 0.00 0.32 0.32 99 1000.9
20260507195402 50 243 5.2 7.0 0.00 0.32 0.32 99 1000.9
20260507194859 50 247 7.0 7.0 0.00 0.32 0.32 99 1000.8
20260507194355 50 240 7.0 9.6 0.00 0.32 0.32 99 1001.1
20260507193851 50 237 6.1 7.8 0.00 0.32 0.32 99 1000.8
20260507193349 51 229 6.1 6.1 0.00 0.32 0.32 99 1000.9
20260507192845 51 240 5.2 6.1 0.00 0.32 0.32 99 1000.8
20260507192341 51 228 5.2 6.1 0.00 0.32 0.32 99 1000.7
20260507191838 51 259 3.5 5.2 0.00 0.32 0.32 99 1000.7
20260507191334 51 245 5.2 7.0 0.00 0.32 0.32 99 1001.0
20260507190831 51 267 6.1 9.6 0.00 0.32 0.32 99 1000.8
20260507190329 51 244 5.2 9.6 0.00 0.32 0.32 98 1000.8
20260507185828 52 244 7.8 12.2 0.00 0.32 0.32 98 1000.8
20260507185324 54 216 7.0 11.3 0.00 0.32 0.32 99 1000.5
20260507184822 54 214 4.3 8.7 0.00 0.32 0.32 99 1000.4
20260507184320 54 186 7.8 11.3 0.00 0.32 0.32 99 1000.7
20260507183816 54 203 8.7 13.0 0.00 0.32 0.32 99 1000.7
20260507183313 54 170 7.8 13.9 0.00 0.32 0.32 99 1000.6
20260507182811 54 183 12.2 13.0 0.00 0.32 0.32 99 1000.1
20260507182307 53 175 12.2 13.9 0.00 0.32 0.32 99 1000.3
20260507181802 53 171 8.7 13.9 0.00 0.32 0.32 99 999.7
20260507181259 53 147 7.8 13.9 0.00 0.32 0.32 99 999.5
20260507180755 53 166 11.3 15.6 0.00 0.32 0.32 99 1000.7
20260507180253 53 170 12.2 13.0 0.05 0.32 0.32 99 1000.4
20260507175748 53 179 9.6 13.9 0.05 0.32 0.32 99 1001.1
20260507175245 53 196 8.7 13.9 0.00 0.31 0.31 99 1001.7
20260507174742 53 174 14.8 19.1 0.00 0.31 0.31 99 1001.3
20260507174240 53 175 10.4 16.5 0.02 0.31 0.31 99 1000.8
20260507173738 53 175 13.9 19.1 0.02 0.31 0.31 99 1000.8
20260507173234 53 165 10.4 15.6 0.02 0.31 0.31 99 1000.2
20260507172731 53 163 7.8 15.6 0.05 0.31 0.31 99 1000.0
20260507172228 53 151 11.3 15.6 0.07 0.30 0.30 99 1000.5
20260507171728 53 171 11.3 13.9 0.05 0.29 0.29 99 1001.0
20260507171226 53 172 8.7 17.4 0.05 0.29 0.29 99 1000.8
20260507170722 53 170 11.3 13.9 0.02 0.28 0.28 99 1000.9
20260507170219 53 184 11.3 15.6 0.00 0.28 0.28 99 1001.5
20260507165715 54 168 12.2 15.6 0.02 0.28 0.28 98 1001.3
20260507165211 54 178 12.2 15.6 0.02 0.28 0.28 98 1001.7
20260507164707 54 173 13.0 17.4 0.00 0.28 0.28 98 1001.5
20260507164205 54 189 13.9 15.6 0.00 0.28 0.28 98 1001.1
20260507163701 54 171 8.7 14.8 0.07 0.28 0.28 98 1000.9
20260507163159 54 176 12.2 14.8 0.14 0.27 0.27 98 1001.2
20260507162655 54 170 15.6 15.6 0.17 0.26 0.26 98 1001.3
20260507162151 54 196 7.0 12.2 0.14 0.25 0.25 98 1001.9
20260507161648 54 174 8.7 16.5 0.14 0.24 0.24 98 1002.0
20260507161144 54 166 11.3 13.9 0.12 0.22 0.22 98 1001.9
20260507160641 54 166 11.3 13.9 0.07 0.21 0.21 98 1002.1
20260507160138 54 166 13.0 14.8 0.05 0.20 0.20 98 1001.6
20260507155633 54 193 6.1 13.0 0.05 0.20 0.20 98 1001.8
20260507155130 54 190 10.4 13.9 0.05 0.19 0.19 98 1001.8
20260507154626 54 186 9.6 13.9 0.05 0.19 0.19 98 1001.9
20260507154124 54 192 10.4 14.8 0.05 0.18 0.18 98 1002.4
20260507153620 54 196 7.8 12.2 0.07 0.18 0.18 98 1002.5
20260507153117 54 194 9.6 17.4 0.12 0.18 0.18 97 1003.0
20260507152613 53 198 7.8 18.2 0.14 0.17 0.17 97 1003.3
20260507152109 53 221 7.8 14.8 0.21 0.16 0.16 97 1003.1
20260507151605 53 209 10.4 14.8 0.24 0.14 0.14 97 1003.4
20260507151103 53 207 6.1 14.8 0.28 0.12 0.12 96 1003.0
20260507150600 53 194 6.1 16.5 0.35 0.10 0.10 95 1003.5
20260507150056 54 216 10.4 14.8 0.24 0.06 0.06 94 1003.4
20260507145551 54 223 9.6 13.9 0.14 0.03 0.03 93 1003.0
20260507145050 55 212 7.8 14.8 0.07 0.02 0.02 91 1002.8
20260507144546 56 202 12.2 13.9 0.00 0.01 0.01 90 1002.7
20260507144044 57 208 6.1 13.9 0.00 0.01 0.01 89 1002.9
20260507143540 57 213 13.0 17.4 0.00 0.01 0.01 89 1002.8
20260507143038 57 201 17.4 17.4 0.00 0.01 0.01 89 1003.1
20260507142533 57 201 11.3 13.0 0.00 0.01 0.01 89 1002.7
20260507142030 57 196 8.7 14.8 0.00 0.01 0.01 89 1002.9
20260507141526 57 203 8.7 13.0 0.00 0.01 0.01 88 1002.9
20260507141023 57 195 9.6 16.5 0.00 0.01 0.01 88 1002.7
20260507140520 58 177 15.6 20.9 0.00 0.01 0.01 88 1002.4
20260507140018 57 181 12.2 19.1 0.00 0.01 0.01 89 1002.3
20260507135514 57 168 20.0 20.9 0.00 0.01 0.01 89 1002.4
20260507135011 57 183 13.0 20.9 0.00 0.01 0.01 89 1002.3
20260507134508 57 174 14.8 20.0 0.00 0.01 0.01 89 1002.7
20260507134003 57 175 9.6 21.7 0.00 0.01 0.01 89 1002.5
20260507133459 57 177 12.2 22.6 0.00 0.01 0.01 89 1002.8
20260507132958 57 175 15.6 25.2 0.00 0.01 0.01 89 1003.0